Weather in Gromovka

Ukraine / Kherson District     46°18′33″N   34°05′38″E
temp.,
°C
wind,
m/s
gust,
m/s
humid.,
%
clouds,
%
prec.,
mm/h
press.,
hPa
HPBL,
m
27 january, wed
wed2723:00+8sse5895100 1.1 1007188
02:00+7ese7994100 3.1 1005183
05:00+9se71082100 0.4 1003182
08:00+9se61078100 0.5 1001165
11:00+12s61268100 0.3 1001432
14:00+9e3489100 2.2 99956
17:00+9ese5881100 0.6 997138
20:00+8ese91378100 0.6 995217
28 january, thu
thu2823:00+9sse91366100 0.0 996246
02:00+8s4673100 0.0 995114
05:00+7ssw61180100 0.1 995470
08:00+6ssw81376100 0.1 998868
11:00+6ssw10146334 0.0 10001301
14:00+5ssw9145949 0.0 10011718
17:00+4ssw12166888 0.1 10021588
20:00+2ssw14189094 0.4 10021394
29 january, fri
fri2923:00+2sw151991100 0.7 10021356
02:00+1wsw141795100 1.9 10021192
05:00+1wsw111596100 1.2 1003990
08:00+2wsw101582100 1.6 10051208
11:00+4wsw101365100 0.1 10061465
14:00+5wsw91368100 0.1 10061307
17:00+5sw7137499 0.0 1005795
20:00+5sw91477100 0.0 1005742
30 january, sat
sat3023:00+5ssw81394100 2.7 1005627
02:00+5wsw3792100 3.8 1005324
05:00+5ssw588999 0.0 1003203
08:00+5s588899 0.1 1002215
11:00+8ssw81280100 0.0 1002673
14:00+8ssw81271100 0.0 999750
17:00+7ssw4869100 0.1 998311
20:00+7ssw2373100 0.2 99852
31 january, sun
sun3123:00+6s5986100 1.0 998318
02:00+6sw61094100 1.5 998305
05:00+3wnw5795100 0.1 1000330
08:00+4w5685100 0.1 1003462
11:00+6sw798354 0.0 1005442
14:00+8wsw587477 0.0 1006469
17:00+7ssw3477100 0.0 100634
20:00+6sse4790100 0.0 1006122